Weather History for Montrose, CO

Change the Weather History Date:

Wednesday, June 26, 2013

  Actual Average Record
Temperature  
Mean Temperature 76 °F 71 °F  
Max Temperature 95 °F 88 °F 97 °F (2007)
Min Temperature 56 °F 55 °F 45 °F (2003)
Degree Days  
Heating Degree Days 0 0  
Month to date heating degree days 9 38  
Since 1 June heating degree days 9 38  
Since 1 July heating degree days 6124 6202  
Cooling Degree Days 11 6  
Month to date cooling degree days 180 106  
Year to date cooling degree days 205 123  
Since 1 June cooling degree days 180 106  
Growing Degree Days 26 (Base 50)    
Moisture  
Dew Point 34 °F    
Average Humidity 25    
Maximum Humidity 40    
Minimum Humidity 10    
Precipitation  
Precipitation 0.00 in 0.03 in 0.07 in (2008)
Month to date precipitation T 0.65  
Year to date precipitation 2.65 4.95  
Sea Level Pressure  
Sea Level Pressure 29.91 in    
Wind  
Wind Speed 6 mph (ESE)    
Max Wind Speed 17 mph    
Max Gust Speed 25 mph    
Visibility 10 miles    
Events      
T = Trace of Precipitation, MM = Missing Value Source: NWS Daily Summary

Daily Weather History Graph

Daily Weather History Graph

Search for Another Location

Airport:

Trip Planner

Search our weather history database for the weather conditions in past years. The results will help you decide how hot, cold, wet, or windy it might be!

Date:

Astronomy

Jun. 26, 2013 Rise Set
Actual Time 5:49 AM MDT 8:39 PM MDT
Civil Twilight 5:17 AM MDT 9:11 PM MDT
Nautical Twilight 4:37 AM MDT 9:51 PM MDT
Astronomical Twilight 3:51 AM MDT 10:37 PM MDT
Moon 11:08 PM MDT (6/26) 9:41 AM MDT (6/26)
Length of Visible Light 15h 54m
Length of Day
14h 50m
Waning Gibbous, 85% of the Moon is Illuminated
Jun 26
Waning Gibbous
Jun 29
Last Quarter
Jul 8
New
Jul 15
First Quarter
Jul 22
Full

Hourly Weather History & Observations

Time (MDT) Temp. Dew Point Humidity Pressure Visibility Wind Dir Wind Speed Gust Speed Precip Events Conditions
12:53 AM 64.0 °F 33.1 °F 31% 29.89 in 10.0 mi SE 9.2 mph - N/A   Clear
1:53 AM 66.0 °F 33.1 °F 29% 29.89 in 10.0 mi SE 11.5 mph - N/A   Clear
2:53 AM 64.9 °F 33.1 °F 31% 29.88 in 10.0 mi SE 16.1 mph - N/A   Clear
3:53 AM 64.0 °F 32.0 °F 30% 29.89 in 10.0 mi SE 10.4 mph - N/A   Clear
4:53 AM 62.1 °F 33.1 °F 34% 29.91 in 10.0 mi SE 10.4 mph - N/A   Clear
5:53 AM 57.9 °F 34.0 °F 41% 29.94 in 10.0 mi SSE 5.8 mph - N/A   Clear
6:53 AM 63.0 °F 34.0 °F 34% 29.95 in 10.0 mi ESE 9.2 mph - N/A   Clear
7:53 AM 68.0 °F 36.0 °F 31% 29.96 in 10.0 mi SSE 5.8 mph - N/A   Clear
8:53 AM 73.0 °F 36.0 °F 26% 29.96 in 10.0 mi Calm Calm - N/A   Clear
9:53 AM 79.0 °F 35.1 °F 20% 29.97 in 10.0 mi Calm Calm - N/A   Clear
10:53 AM 84.9 °F 37.0 °F 18% 29.97 in 10.0 mi North 4.6 mph - N/A   Clear
11:53 AM 88.0 °F 33.1 °F 14% 29.95 in 10.0 mi East 6.9 mph - N/A   Clear
12:53 PM 90.0 °F 33.1 °F 13% 29.94 in 10.0 mi East 8.1 mph - N/A   Clear
1:53 PM 91.9 °F 30.9 °F 11% 29.90 in 10.0 mi ENE 8.1 mph 25.3 mph N/A   Clear
2:53 PM 93.0 °F 30.9 °F 11% 29.89 in 10.0 mi Variable 4.6 mph - N/A   Clear
3:53 PM 93.9 °F 30.0 °F 10% 29.87 in 10.0 mi North 5.8 mph - N/A   Clear
4:53 PM 95.0 °F 30.0 °F 10% 29.86 in 10.0 mi Variable 5.8 mph - N/A   Clear
5:53 PM 93.0 °F 28.9 °F 10% 29.87 in 10.0 mi East 4.6 mph - N/A   Clear
6:53 PM 93.0 °F 30.9 °F 11% 29.85 in 10.0 mi NNW 5.8 mph - N/A   Clear
7:53 PM 91.9 °F 30.0 °F 11% 29.84 in 10.0 mi North 3.5 mph - N/A   Clear
8:53 PM 81.0 °F 41.0 °F 24% 29.88 in 10.0 mi South 3.5 mph - N/A   Clear
9:53 PM 78.1 °F 39.0 °F 25% 29.90 in 10.0 mi Calm Calm - N/A   Clear
10:53 PM 73.0 °F 39.0 °F 29% 29.94 in 10.0 mi SE 5.8 mph - N/A   Clear
11:53 PM 68.0 °F 39.0 °F 35% 29.96 in 10.0 mi SSE 8.1 mph - N/A   Clear